Tracking 23099 objects as of 13-May-2021
HD Live streaming from Space Station
objects crossing your sky now

OBJECT R

Track OBJECT R now!
10-day predictions


NORAD ID: 45126
Int'l Code: 2019-071R
Perigee: 451.6 km
Apogee: 464.2 km
Inclination: 51.6 °
Period: 93.6 minutes
Semi major axis: 6828 km
RCS: Unknown
Launch date: November 2, 2019
Source: United States (US)
Launch site: WALLOPS ISLAND (WLPIS)

Note: This is SATELLITE DEBRIS
aabbcc
Your satellite tracking list
Your tracking list is empty




NASA's NSSDC Master Catalog

Two Line Element Set (TLE):
1 45126U 19071R   21133.57205232  .00007911  00000-0  21529-3 0  9992
2 45126  51.6410 202.0016 0009274 136.1886 223.9835 15.38430127 71760
Source of the keplerian elements: AFSPC